Regional Weather Roundup
Issued by NWS

Home | Current Version | Previous Version | Text Only | Print | Product List | Glossary Off
Versions: 1 2 3 4 5 6 7 8 9 10 11 12 13 14 15 16 17 18 19 20 21 22 23 24 25 26 27 28 29 30 31 32 33 34 35 36 37 38 39 40 41 42 43 44 45 46 47 48 49 50

000
ASUS45 KPSR 031110
RWRAZ

ARIZONA REGIONAL HOURLY WEATHER ROUNDUP
NATIONAL WEATHER SERVICE PHOENIX AZ
400 AM MST SUN MAY 03 2015

NOTE: FAIR INDICATES FEW OR NO CLOUDS BELOW 12,000 FEET WITH NO
SIGNIFICANT WEATHER AND/OR OBSTRUCTIONS TO VISIBILITY.

AZZ001>003-036-031200-
NORTHWEST ARIZONA

CITY           SKY/WX    TMP DP  RH WIND       PRES   REMARKS
BULLHEAD CITY  CLEAR     75  37  25 CALM      29.76R
KINGMAN        CLEAR     62  33  33 SW8       29.90R
$$

AZZ004>008-015-016-018-031200-
NORTH CENTRAL ARIZONA

CITY           SKY/WX    TMP DP  RH WIND       PRES   REMARKS
GRAND CANYON   MOCLDY    34  28  79 CALM      30.08S
WILLIAMS       PTCLDY    50  32  50 SE9       30.15S
PRESCOTT       MOCLDY    60  34  37 SW5       30.03R
FLAGSTAFF      MOCLDY    50  30  46 SW9       30.11S
PAYSON         MOCLDY    57  37  47 CALM      30.06S
PAGE           CLOUDY    66  30  26 S7        29.93R
$$

AZZ009>014-017-031200-
NORTHEAST ARIZONA

CITY           SKY/WX    TMP DP  RH WIND       PRES   REMARKS
WINSLOW        MOCLDY    51  33  50 SW5       30.01S
SAINT JOHNS    PTCLDY    43  32  65 W5        30.04S
WINDOW ROCK    MOCLDY    41  38  89 S3        30.10S
SHOW LOW       PTCLDY    48  32  53 S13       30.09S
$$

AZZ023-031200-
GREATER PHOENIX AREA

CITY           SKY/WX    TMP DP  RH WIND       PRES   REMARKS
PHOENIX        MOCLDY    79  40  24 CALM      29.83R
LUKE AFB       MOCLDY    73  47  38 NW3       29.82S
DEER VALLEY    PTCLDY    73  42  32 N3        29.84S
SCOTTSDALE     PTCLDY    74  42  31 CALM      29.86S
MESA-GATEWAY   CLEAR     68  43  40 SE8       29.87S
$$

AZZ027-028-031200-
SOUTHWEST MARICOPA COUNTY AND PINAL COUNTY

CITY           SKY/WX    TMP DP  RH WIND       PRES   REMARKS
CASA GRANDE    CLEAR     70  39  32 CALM      29.85S
GILA BEND      FAIR      72  42  34 SE9       29.80S
$$

AZZ503-504-507>509-031200-
SOUTHEAST ARIZONA

CITY           SKY/WX    TMP DP  RH WIND       PRES   REMARKS
TUCSON         CLEAR     63  39  41 SE7       29.93F
DAVIS-MONTHAN  CLEAR     62  43  49 SE9       29.91F
NOGALES        CLEAR     56  43  61 NE5       29.98F
SIERRA VISTA   CLEAR     57  41  55 SW6       30.02F
DOUGLAS        CLEAR     55  43  63 E8        30.01S
SAFFORD        PTCLDY    70  38  31 NW8       29.92S
$$

AZZ020-021-025-026-031-031200-
SOUTHWEST ARIZONA

CITY           SKY/WX    TMP DP  RH WIND       PRES   REMARKS
YUMA           CLEAR     74  57  55 S10       29.73F
$$

CAZ031-033-041-043-047-048-061-031200-
SOUTHERN CALIFORNIA

CITY           SKY/WX    TMP DP  RH WIND       PRES   REMARKS
DOWNTOWN L.A.  CLOUDY    59  53  80 CALM      29.88F
L.A. AIRPORT   CLOUDY    58  53  84 N3        29.89S
SAN DIEGO      CLOUDY    64  53  67 SW3       29.89F
BURBANK        PTCLDY    57  50  77 CALM      29.88S
ONTARIO        CLEAR     56  52  86 W5        29.88F
RIVERSIDE      CLEAR     57  53  86 CALM      29.89S
PALM SPRINGS   CLEAR     72  38  29 CALM      29.75S
EL CENTRO NAS  CLEAR     71  44  37 W6        29.72F
IMPERIAL       CLEAR     67  49  52 SW7       29.70F
BLYTHE         CLEAR     71  45  39 CALM      29.74S
NEEDLES        CLEAR     77  35  21 CALM      29.76R
$$

NVZ020-UTZ003-031200-
SOUTHERN NEVADA-UTAH

CITY           SKY/WX    TMP DP  RH WIND       PRES   REMARKS
LAS VEGAS      CLEAR     73  29  19 S12       29.75S
SALT LAKE CITY CLOUDY    61  40  45 N10       29.88R
$$

NMZ009-TXZ055-031200-
NEW MEXICO-WEST TEXAS

CITY           SKY/WX    TMP DP  RH WIND       PRES   REMARKS
ALBUQUERQUE    MOCLDY    57  35  43 CALM      30.05S
EL PASO        MOCLDY    72  36  26 N3        29.93F
$$


........................KEY........................
SKY/WX - SKY CONDITION/WEATHER
TMP    - TEMPERATURE IN FAHRENHEIT
DP     - DEW POINT IN FAHRENHEIT
RH     - RELATIVE HUMIDITY IN PERCENT
WIND   - DIRECTION AND SPEED IN MILES PER HOUR (MPH)
VRB    - VARIABLE WIND DIRECTION
PRES   - MEAN SEA LEVEL PRESSURE IN INCHES OF MERCURY
         F - FALLING PRESSURE   R - RISING PRESSURE
         S - STEADY PRESSURE
VSB    - VISIBILITY IN MILES
HX     - HEAT INDEX IN FAHRENHEIT
WCI    - WIND CHILL INDEX IN FAHRENHEIT
TC     - TEMPERATURE IN CELSIUS WHICH IS ALSO KNOWN AS
         TEMPERATURE IN CENTIGRADE
AFB    - AIR FORCE BASE
         LUKE AFB IS LUKE AIR FORCE BASE
         DAVIS-MONTHAN IS DAVIS-MONTHAN AIR FORCE BASE
NAS    - NAVAL AIR STATION
         EL CENTRO NAS IS EL CENTRO NAVAL AIR STATION
N/A    - NOT AVAILABLE



USA.gov is the U.S. government's official web portal to all federal, state and local government web resources and services.